EGPF

Glasgow International Airport

Airport
ICAO code
EGPF
IATA Code
GLA
Summary
ICAO Region
EUR
ICAO Territory
Location

Paisley, Scotland

Serving
Glasgow
Elevation
26 ft
Coordinates
55° 52' 5" N , 4° 26' 9" W
KCC
Metar
Observation
EGPF 282150Z AUTO 23011KT 9999 BKN016 BKN021 BKN026 04/03 Q1027
Station
Glasgow Airport
Date/Time
2023-01-28 22:50:00
Wind direction
230°
Wind speed
11 kts
Lowest cloud amount
broken clouds
Temperature
4°C
Dew point
3°C
Humidity
93%
QNH
1027 hPa
Weather condition
n/a

Description

A domestic and international airport serving the City of Glasgow and the surrounding region.

Climatology

Temperate Marine climate/Oceanic climate (Köppen climate classification Cfb). Moderately cool summer and comparatively warm winter with a temperature range of only 14°C. Prevailing south-westerly winds from the Atlantic Ocean.

Runways

Designator Length Width Surface Rops
9/27 1104 46 ASP Yes/Yes
5/23 2658 46 ASP Yes/Yes

SKYbrary Partners:

Safety knowledge contributed by: